This demonstration page uses our WeatherBlox Daily Observations layout. Learn more.

Left ArrowRight Arrow

39.95238, -75.16362

Hourly Observations for April 18, 2015

Temp ( °F °C ) Dew Point ( °F °C ) Humidity (%) Winds ( mph kmh ) Pressure ( in mb ) Visibility ( mi km ) Precip ( " mm )
12:54 am 00:54 Partly Cloudy 60 15.6 56 13.3 86 86 S 6 9 29.98 1015 10 16 0.00 0.00
1:54 am 01:54 Partly Cloudy 60 15.6 56 13.3 86 86 W 3 6 29.97 1015 10 16 0.00 0.00
2:25 am 02:25 Partly Cloudy with Mist and Fog 57 13.9 54 12.2 90 90 Calm 29.97 1015 6 10 0.00 0.00
2:54 am 02:54 Partly Cloudy with Mist and Fog 57 13.9 54 12.2 90 90 Calm 29.98 1015 6 10 0.00 0.00
3:24 am 03:24 Mostly Cloudy 60 15.6 55 12.8 84 84 Calm 29.97 1015 7 11 0.00 0.00
3:54 am 03:54 Mostly Cloudy 58 14.4 53 11.7 84 84 ESE 3 6 29.98 1015 8 13 0.00 0.00
4:54 am 04:54 Mostly Clear 56 13.3 52 11.1 87 87 E 3 6 29.97 1015 8 13 0.00 0.00
5:54 am 05:54 Mostly Clear 57 13.9 53 11.7 87 87 Calm 29.98 1015 8 13 0.00 0.00
6:54 am 06:54 Mostly Sunny 57 13.9 52 11.1 83 83 NNW 5 7 30.00 1016 9 14 0.00 0.00
7:47 am 07:47 Mostly Sunny 61 16.1 53 11.7 75 75 NNW 3 6 30.03 1017 10 16 0.00 0.00
7:54 am 07:54 Mostly Sunny 62 16.7 52 11.1 70 70 NNW 3 6 30.03 1017 10 16 0.00 0.00
8:54 am 08:54 Mostly Sunny 65 18.3 51 10.6 61 61 Calm 30.03 1017 10 16 0.00 0.00
9:54 am 09:54 Partly Cloudy 69 20.6 48 8.9 47 47 ESE 3 6 30.03 1017 10 16 0.00 0.00
10:54 am 10:54 Mostly Cloudy 70 21.1 48 8.9 46 46 S 6 9 30.02 1017 10 16 0.00 0.00
11:54 am 11:54 Mostly Cloudy 72 22.2 46 7.8 40 40 SSW 7 11 30.00 1016 10 16 0.00 0.00
12:54 pm 12:54 Mostly Cloudy 76 24.4 35 1.7 23 23 VRB 6 9 29.97 1015 10 16 0.00 0.00
1:54 pm 13:54 Mostly Cloudy 78 25.6 32 0 19 19 W 9 15 29.95 1014 10 16 0.00 0.00
2:54 pm 14:54 Mostly Cloudy 79 26.1 34 1.1 20 20 SW 7 11 29.93 1013 10 16 0.00 0.00
3:54 pm 15:54 Partly Cloudy 80 26.7 37 2.8 21 21 SW 13 20 29.91 1013 10 16 0.00 0.00
4:54 pm 16:54 Partly Cloudy 80 26.7 38 3.3 22 22 WSW 14 22 29.91 1013 10 16 0.00 0.00
5:54 pm 17:54 Partly Cloudy 80 26.7 41 5 25 25 WSW 12 19 29.92 1013 10 16 0.00 0.00
6:54 pm 18:54 Mostly Cloudy 79 26.1 40 4.4 25 25 W 14 22 29.93 1014 10 16 0.00 0.00
7:54 pm 19:54 Mostly Cloudy 73 22.8 42 5.6 33 33 SW 13 20 29.93 1014 10 16 0.00 0.00
8:54 pm 20:54 Mostly Cloudy 72 22.2 45 7.2 38 38 SSW 8 13 29.95 1014 10 16 0.00 0.00
9:54 pm 21:54 Mostly Cloudy 67 19.4 47 8.3 49 49 SW 5 7 29.97 1015 10 16 0.00 0.00
10:54 pm 22:54 Partly Cloudy 71 21.7 44 6.7 38 38 VRB 6 9 30.01 1016 10 16 0.00 0.00
11:54 pm 23:54 Mostly Cloudy 70 21.1 38 3.3 31 31 N 14 22 30.04 1017 10 16 0.00 0.00

Powered by AerisWeather